{"data":{"norad_id":81537,"epoch":"2026-05-23T06:14:11.808096Z","epoch_age_seconds":235840,"freshness":"STALE","line1":"1 81537U          26143.25985889 -.00000014  00000+0  19240-4 0  9999","line2":"2 81537  71.0371 135.0528 0079420 268.7931  90.4088 14.07200155643183","mean_motion":14.07200155,"eccentricity":0.007942,"inclination_deg":71.0371,"raan_deg":135.0528,"arg_perigee_deg":268.7931,"mean_anomaly_deg":90.4088,"bstar":1.924e-5,"rev_number":64318,"period_min":102.33085854087,"perigee_km":811.41212348614,"apogee_km":926.52514941553,"semimajor_km":7247.1056364508,"source":"CELESTRAK","updated_at":"2026-05-25T13:38:11.077042Z"}}